Weather History for Cognac, France

Change the Weather History Date:

Monday, November 12, 2012

  Actual Average Record
Temperature  
Mean Temperature 44 °F -  
Max Temperature 55 °F - - ()
Min Temperature 32 °F - - ()
Degree Days  
Heating Degree Days 22    
Moisture  
Dew Point 38 °F    
Average Humidity 89    
Maximum Humidity 100    
Minimum Humidity 58    
Precipitation  
Precipitation 0.00 in - - ()
Sea Level Pressure  
Sea Level Pressure 30.33 in    
Wind  
Wind Speed 1 mph ()    
Max Wind Speed 4 mph    
Max Gust Speed -    
Visibility 3.0 miles    
Events Fog    
T = Trace of Precipitation, MM = Missing Value Source: Averaged Metar Reports

Daily Weather History Graph

Daily Weather History Graph

Search for Another Location

Airport:

Trip Planner

Search our weather history database for the weather conditions in past years. The results will help you decide how hot, cold, wet, or windy it might be!

Date:

Astronomy

Nov. 12, 2012 Rise Set
Actual Time 7:56 AM CET 5:33 PM CET
Civil Twilight 7:24 AM CET 6:05 PM CET
Nautical Twilight 6:49 AM CET 6:41 PM CET
Astronomical Twilight 6:14 AM CET 7:16 PM CET
Moon 6:00 AM CET (11/12) 4:29 PM CET (11/12)
Length of Visible Light 10h 40m
Length of Day
9h 36m
Waning Crescent, 3% of the Moon is Illuminated
Nov 12
Waning Crescent
Nov 13
New
Nov 20
First Quarter
Nov 28
Full
Dec 6
Last Quarter

Hourly Weather History & Observations

Time (CET) Temp. Windchill Dew Point Humidity Pressure Visibility Wind Dir Wind Speed Gust Speed Precip Events Conditions
12:00 AM 39.2 °F - 37.4 °F 93% 30.21 in 3.1 mi Calm Calm - N/A   Mist
12:30 AM 39.2 °F - 37.4 °F 93% 30.24 in 0.2 mi Calm Calm - N/A Fog Fog
1:00 AM 37.4 °F - 35.6 °F 93% 30.24 in 0.2 mi Calm Calm - N/A Fog Fog
1:30 AM 37.4 °F - 35.6 °F 93% 30.24 in 0.2 mi Calm Calm - N/A Fog Fog
2:00 AM 35.6 °F - 35.6 °F 100% 30.24 in 0.1 mi Calm Calm - N/A Fog Fog
2:30 AM 35.6 °F - 33.8 °F 93% 30.24 in 0.2 mi Calm Calm - N/A Fog Fog
3:00 AM 35.6 °F - 35.6 °F 100% 30.24 in 0.8 mi Variable 2.3 mph - N/A   Mist
3:30 AM 35.6 °F - 33.8 °F 93% 30.27 in 0.2 mi ENE 2.3 mph - N/A Fog Fog
4:00 AM 33.8 °F - 33.8 °F 100% 30.27 in 0.1 mi Variable 1.2 mph - N/A Fog Fog
4:30 AM 33.8 °F - 32.0 °F 93% 30.24 in 0.1 mi Calm Calm - N/A Fog Fog
5:00 AM 32.0 °F - 32.0 °F 100% 30.27 in 0.1 mi East 1.2 mph - N/A Fog Fog
5:30 AM 32.0 °F - 32.0 °F 100% 30.27 in 0.1 mi ENE 1.2 mph - N/A Fog Fog
6:00 AM 32.0 °F - 32.0 °F 100% 30.27 in 0.1 mi ESE 1.2 mph - N/A Fog Fog
6:30 AM 32.0 °F - 32.0 °F 100% 30.27 in 0.1 mi Calm Calm - N/A Fog Fog
7:00 AM 32.0 °F - 32.0 °F 100% 30.27 in 0.1 mi Calm Calm - N/A Fog Fog
7:30 AM 33.8 °F - 32.0 °F 93% 30.30 in 0.1 mi ESE 1.2 mph - N/A Fog Fog
8:00 AM 33.8 °F - 33.8 °F 100% 30.30 in 0.2 mi East 1.2 mph - N/A Fog Fog
8:30 AM 33.8 °F - 33.8 °F 100% 30.33 in 0.1 mi Calm Calm - N/A Fog Fog
9:00 AM 35.6 °F - 33.8 °F 93% 30.33 in 0.1 mi Variable 2.3 mph - N/A Fog Fog
9:30 AM 35.6 °F - 35.6 °F 100% 30.33 in 0.1 mi Variable 2.3 mph - N/A Fog Fog
10:00 AM 37.4 °F - 35.6 °F 93% 30.36 in 0.1 mi Calm Calm - N/A Fog Fog
10:30 AM 37.4 °F - 37.4 °F 100% 30.36 in 0.1 mi Calm Calm - N/A Fog Fog
11:00 AM 39.2 °F - 39.2 °F 100% 30.36 in 0.2 mi Calm Calm - N/A Fog Fog
11:30 AM 41.0 °F - 41.0 °F 100% 30.39 in 0.4 mi Variable 2.3 mph - N/A Fog Fog
12:00 PM 44.6 °F - 42.8 °F 93% 30.36 in 0.8 mi Variable 2.3 mph - N/A   Mist
12:30 PM 44.6 °F 43.1 °F 42.8 °F 93% 30.36 in 0.6 mi East 3.5 mph - N/A Fog Fog
1:00 PM 46.4 °F 45.2 °F 46.4 °F 100% 30.36 in 6.2 mi ENE 3.5 mph - N/A   Unknown
1:30 PM 48.2 °F - 46.4 °F 93% 30.36 in 6.2 mi Variable 2.3 mph - N/A   Unknown
2:00 PM 51.8 °F - 42.8 °F 71% 30.36 in 6.2 mi Variable 3.5 mph - N/A   Unknown
2:30 PM 53.6 °F - 42.8 °F 67% 30.36 in 6.2 mi Calm Calm - N/A   Unknown
3:00 PM 55.4 °F - 41.0 °F 58% 30.36 in 6.2 mi Calm Calm - N/A   Unknown
3:30 PM 53.6 °F - 39.2 °F 58% 30.36 in 6.2 mi Calm Calm - N/A   Unknown
4:00 PM 51.8 °F - 41.0 °F 67% 30.36 in 6.2 mi ENE 1.2 mph - N/A   Unknown
4:30 PM 51.8 °F - 41.0 °F 67% 30.36 in 6.2 mi Calm Calm - N/A   Unknown
5:00 PM 50.0 °F - 41.0 °F 71% 30.36 in 6.2 mi North 2.3 mph - N/A   Unknown
5:30 PM 48.2 °F - 42.8 °F 82% 30.36 in 6.2 mi NNW 2.3 mph - N/A   Unknown
6:00 PM 48.2 °F - 41.0 °F 76% 30.36 in 6.2 mi Calm Calm - N/A   Unknown
6:30 PM 46.4 °F - 41.0 °F 81% 30.36 in 6.2 mi SE 2.3 mph - N/A   Unknown
7:00 PM 46.4 °F 45.2 °F 41.0 °F 81% 30.39 in 6.2 mi ESE 3.5 mph - N/A   Unknown
7:30 PM 46.4 °F - 42.8 °F 87% 30.39 in 6.2 mi East 1.2 mph - N/A   Unknown
8:00 PM 46.4 °F - 41.0 °F 81% 30.39 in 6.2 mi East 2.3 mph - N/A   Unknown
8:30 PM 46.4 °F 45.2 °F 41.0 °F 81% 30.39 in 6.2 mi East 3.5 mph - N/A   Unknown
9:00 PM 44.6 °F 43.1 °F 41.0 °F 87% 30.39 in 6.2 mi ESE 3.5 mph - N/A   Unknown
9:30 PM 44.6 °F - 41.0 °F 87% 30.39 in 6.2 mi Variable 2.3 mph - N/A   Unknown
10:00 PM 44.6 °F - 41.0 °F 87% 30.39 in 6.2 mi Variable 1.2 mph - N/A   Unknown
10:30 PM 44.6 °F - 41.0 °F 87% 30.39 in 6.2 mi East 2.3 mph - N/A   Unknown
11:00 PM 42.8 °F - 39.2 °F 87% 30.39 in 6.2 mi Calm Calm - N/A   Unknown
11:30 PM 42.8 °F - 39.2 °F 87% 30.39 in 6.2 mi East 2.3 mph - N/A   Unknown